Wind_Speed
3 4 2 3 5 7 8 5 5 4 6 5 10 10 14 9 8 9 8 8 7 6 7 6 4 4 4 5 7 8 10 11 13 14 15 15 16 16 16 15 15 15 15 15
4 2 4 5 8 8 9 6 8 7 16 8 7 5 7 10 9 8 8 8 7 7 8 5 2 4 5 7 8 9 11 12 13 15 16 18 19 19 19 18 18 17 17 16
4 2 5 8 10 13 6 5 7 8 7 3 5 9 11 10 9 9 7 7 7 7 7 5 4 3 4 5 6 7 10 12 14 16 17 18 19 20 21 22 21 21 20 19
3 2 3 5 1 2 11 6 9 3 4 4 2 3 5 5 8 9 9 9 7 11 9 7 5 3 4 4 6 7 10 12 13 15 17 19 20 20 21 21 21 22 23 23
3 3 7 2 3 5 5 5 6 10 7 6 7 5 6 2 4 6 7 12 12 11 8 6 4 2 3 4 5 7 11 13 15 15 17 19 19 20 21 23 24 24 22 21
2 4 6 4 3 3 3 5 2 2 7 8 6 4 4 5 7 9 14 14 12 8 6 6 3 1 2 3 3 7 10 12 13 14 16 18 18 20 21 21 22 22 22 21
4 4 7 6 5 3 3 4 1 1 5 8 5 4 5 8 6 14 14 12 9 7 7 5 3 1 2 3 5 7 10 12 13 14 16 17 18 20 19 21 21 22 22 23
4 4 9 6 4 6 4 2 3 2 4 6 7 8 7 7 7 11 12 10 8 8 6 4 2 0 2 4 6 9 11 13 14 15 15 16 18 19 19 19 20 22 23 26
9 6 3 7 4 5 4 4 4 5 3 9 9 6 8 7 7 10 12 11 9 7 5 3 3 2 4 6 8 10 12 14 15 16 16 16 18 18 19 20 21 23 25 25
1 5 7 9 6 5 6 5 5 5 6 8 8 8 7 7 6 10 12 11 8 6 4 2 2 3 6 9 10 13 15 16 16 16 16 17 18 18 18 21 23 23 24 22
5 6 5 7 7 6 5 5 4 5 5 8 8 7 6 6 7 11 11 9 7 5 3 3 5 7 9 11 12 14 16 17 18 17 17 19 18 19 18 21 20 21 24 24
6 7 4 3 1 6 9 8 7 7 5 4 7 8 8 6 13 12 10 9 6 5 5 6 7 11 12 12 13 15 17 19 21 21 21 21 22 22 20 22 22 23 22 19
7 3 4 4 2 3 7 7 7 8 7 7 8 13 13 8 12 11 9 7 7 6 6 8 10 14 14 14 14 16 19 21 23 23 23 23 24 23 23 28 25 26 26 25
4 6 2 4 5 5 6 9 13 12 13 13 12 14 14 10 9 8 8 8 6 7 9 11 13 16 16 16 17 19 21 22 24 26 26 26 26 26 24 24 21 28 30 31
8 3 3 4 6 5 8 10 9 8 7 8 12 12 11 9 9 9 6 5 7 10 13 13 15 19 18 18 21 21 22 23 24 26 26 27 26 26 27 27 23 26 29 34
5 5 5 7 7 7 7 6 8 7 6 7 9 10 9 7 5 6 7 8 10 14 15 16 19 21 20 20 22 22 22 22 21 22 25 26 27 27 27 25 24 24 24 28
6 5 5 4 7 7 7 5 6 7 9 9 9 8 6 5 6 9 12 12 14 17 18 20 24 23 23 20 21 22 22 22 23 21 24 25 28 27 26 24 23 24 26 29
6 4 7 7 9 7 7 7 9 9 6 8 6 5 6 7 10 14 16 16 18 20 22 24 25 24 22 21 21 23 23 24 24 24 26 26 28 28 27 25 25 25 27 28
5 6 8 10 12 9 8 9 11 10 8 6 6 8 10 12 15 17 18 19 20 22 30 24 25 26 26 26 26 27 25 25 26 26 27 27 26 27 25 25 25 26 26 26
5 8 10 10 13 14 11 11 11 9 8 7 8 10 13 17 19 20 21 25 25 25 28 28 26 25 26 27 27 25 24 25 27 28 26 23 24 23 24 25 23 22 22 23
5 6 7 8 8 8 10 10 10 9 10 10 12 16 19 21 21 21 21 17 31 26 26 26 25 26 27 28 28 27 26 28 28 27 25 25 24 24 22 22 22 22 22 23
2 3 6 6 5 5 8 8 10 12 15 17 19 19 20 24 26 28 30 27 35 29 27 26 25 25 26 26 27 28 28 28 28 26 26 25 23 24 24 23 22 22 21 23
3 4 4 6 8 9 9 11 16 19 21 22 25 26 25 27 25 17 13 24 23 24 24 26 26 27 25 23 25 26 27 28 28 26 25 24 24 25 23 20 20 20 23 25
7 8 11 13 12 12 10 21 21 22 24 25 27 28 28 21 26 27 29 30 28 28 28 29 28 27 23 24 25 26 27 27 26 25 23 22 22 22 23 23 23 23 25 26
9 11 11 12 11 12 19 20 20 23 23 25 28 28 27 27 25 33 29 31 31 30 30 32 30 27 24 24 24 25 25 24 23 20 21 23 22 22 23 23 24 26 27 24
10 12 15 17 17 18 20 20 16 20 19 19 24 26 27 27 27 29 30 30 31 31 31 31 30 29 27 25 25 23 23 23 22 23 23 24 24 24 25 26 27 26 25 25
15 15 17 18 19 19 19 20 17 18 20 19 20 24 26 30 29 26 26 27 28 29 30 31 30 28 27 27 27 25 24 25 27 27 27 26 25 25 26 26 25 27 24 28
Wind_Direction
249 240 206 233 213 194 196 208 174 262 212 241 206 191 190 173 164 166 175 174 167 152 143 136 123 96 65 40 32 21 22 18 12 5 4 3 4 1 356 354 351 346 338 332
290 238 197 255 257 247 231 224 248 265 272 220 232 165 159 181 173 171 178 166 153 152 144 142 110 57 42 33 25 18 19 15 8 6 5 6 4 1 357 353 350 346 341 338
279 310 325 295 229 205 196 210 192 208 235 170 188 190 190 186 169 167 153 142 143 146 150 149 131 107 53 34 26 22 21 15 10 7 7 5 1 359 359 355 351 349 346 342
242 2 254 245 107 168 217 223 220 208 173 141 149 133 136 150 152 154 151 153 150 152 152 145 135 87 35 30 22 20 11 9 6 2 1 360 358 358 356 354 351 349 347 345
181 210 293 240 218 183 185 275 212 215 188 152 132 73 18 41 108 144 141 144 151 158 158 147 136 68 45 45 26 10 3 0 358 356 352 352 352 351 350 348 347 347 348 348
157 196 231 241 192 165 130 286 245 186 179 157 140 168 213 163 129 130 139 146 149 155 153 155 136 98 77 44 23 3 354 351 352 351 349 347 346 346 345 345 343 345 345 350
218 239 285 237 167 146 151 231 168 109 155 162 162 190 152 140 128 142 142 142 148 157 160 161 167 147 47 5 353 345 341 342 345 346 343 343 339 342 343 343 342 343 341 341
163 205 264 148 98 178 209 161 179 190 166 148 135 128 139 140 139 141 145 151 158 155 158 164 180 235 343 332 337 331 331 334 336 337 338 339 339 341 343 345 342 341 341 338
186 211 224 204 211 203 166 167 196 158 146 147 145 160 157 155 151 155 161 158 157 155 158 162 190 244 311 325 324 323 323 326 330 331 332 334 336 336 334 337 337 334 333 330
124 232 207 204 221 194 191 192 196 171 146 155 159 159 161 150 154 155 157 157 159 158 158 179 228 289 312 319 318 314 311 315 319 320 322 323 325 328 326 327 330 328 326 318
258 279 294 266 228 200 192 153 135 142 153 161 149 160 150 151 153 160 159 159 164 169 196 260 289 296 302 309 310 306 304 305 308 310 310 312 316 318 318 318 320 315 312 312
235 216 189 216 274 180 173 180 168 142 124 128 147 152 148 154 159 158 161 165 177 199 234 262 285 296 305 309 306 300 297 300 303 305 307 309 313 314 313 317 319 317 317 313
235 158 179 162 164 161 179 171 167 157 152 144 149 148 152 149 161 161 169 191 211 233 255 279 288 295 302 308 304 298 293 295 296 297 300 305 308 308 307 315 317 319 320 320
160 125 186 191 214 194 155 149 154 155 154 151 147 149 151 153 161 181 205 218 231 254 275 285 291 295 306 310 304 298 296 295 294 295 296 298 299 299 299 299 296 306 314 315
184 198 178 138 130 137 132 130 126 133 134 141 156 158 163 173 193 212 224 238 262 272 278 286 289 292 308 309 302 297 296 297 297 297 296 295 293 293 294 293 289 290 299 308
165 163 147 158 161 150 140 146 145 155 149 152 163 177 189 205 222 244 257 264 265 271 283 287 289 295 306 304 298 295 294 295 295 293 293 291 293 293 292 287 284 284 286 290
139 188 177 174 172 169 176 158 151 155 165 172 186 192 199 225 251 262 270 275 275 276 282 284 286 297 301 296 292 290 291 293 294 286 286 285 286 283 281 280 278 280 281 289
177 180 184 169 168 164 164 161 162 165 170 192 195 204 226 242 256 276 284 291 287 283 280 284 292 298 301 295 290 287 285 286 286 283 287 286 284 284 281 278 278 277 282 286
182 175 166 160 166 155 154 158 171 176 173 186 212 244 261 268 272 277 285 282 279 282 290 300 304 303 298 293 289 285 281 279 280 281 283 285 280 281 280 280 280 282 284 286
116 134 146 139 161 160 165 176 170 177 196 216 241 255 265 272 278 282 285 280 279 280 293 297 298 296 294 294 292 287 280 277 279 282 283 279 279 279 283 287 287 290 293 296
123 128 137 149 163 166 174 177 185 209 233 242 245 254 265 282 286 286 282 276 285 289 291 291 289 289 293 295 294 288 280 279 280 279 279 279 277 274 274 277 279 280 283 286
141 170 182 175 175 202 216 226 234 247 254 258 261 267 278 283 287 283 278 266 285 286 285 284 288 293 294 294 285 281 280 280 281 279 276 275 273 275 275 275 275 277 280 285
183 211 213 215 223 239 259 261 262 263 267 273 277 277 274 275 274 263 277 286 282 285 284 285 289 294 294 284 279 278 278 280 279 275 275 278 277 276 273 273 279 286 290 291
244 242 242 252 259 264 266 277 286 286 281 279 276 276 273 267 277 279 281 287 290 284 280 284 289 294 290 286 283 280 280 284 284 283 281 281 281 283 283 282 282 287 287 291
261 268 269 267 258 255 273 283 283 282 279 278 281 284 283 280 262 286 288 289 290 289 287 290 291 291 286 285 286 285 286 286 282 276 278 278 278 280 281 282 284 286 290 285
282 280 282 282 272 279 280 284 270 278 276 273 278 283 287 288 284 281 285 287 287 287 285 289 291 292 290 287 286 288 285 279 278 280 280 279 279 283 284 287 288 288 285 303
290 286 284 284 284 281 279 276 266 269 275 268 272 284 286 290 287 283 282 284 284 285 287 289 291 292 292 291 286 282 279 275 275 277 283 283 280 279 286 290 288 293 293 310
Height
810 807 807 809 809 814 828 814 816 804 810 793 799 800 799 803 808 812 815 818 820 822 823 824 824 824 824 824 824 824 822 821 820 819 817 815 811 808 806 804 801 799 797 794
818 808 809 814 815 814 813 807 810 809 800 794 787 795 800 799 803 807 811 814 818 820 822 824 826 826 825 825 825 824 823 822 820 818 816 814 811 809 806 803 800 797 794 792
827 812 814 817 803 801 803 800 796 803 787 782 787 789 792 798 801 805 811 816 819 821 823 823 824 824 823 823 824 824 822 821 819 817 815 813 811 808 805 802 800 797 793 790
829 816 813 788 788 788 792 787 789 785 785 784 785 788 790 793 798 804 807 811 815 818 820 821 821 822 823 824 824 823 821 819 818 816 814 811 809 807 804 802 799 796 792 789
822 833 806 782 788 789 787 781 780 783 784 790 791 793 798 796 797 802 806 809 813 816 818 819 820 821 822 822 822 822 821 819 817 815 813 810 808 805 803 800 797 794 791 787
832 821 806 779 782 781 783 790 774 774 780 788 787 798 801 798 798 802 804 808 812 815 817 818 819 819 819 819 819 818 818 817 816 814 812 810 808 805 803 800 796 793 789 786
829 827 806 780 782 783 786 780 773 774 779 786 787 789 791 796 800 802 804 808 811 813 814 816 817 818 818 818 818 817 817 815 814 812 810 808 805 803 799 797 794 792 789 785
828 826 814 779 785 787 778 774 774 774 775 782 786 790 792 794 798 801 804 807 810 811 813 814 816 816 816 817 816 816 814 813 811 810 807 805 802 799 796 794 792 790 787 783
799 789 773 776 770 772 772 774 773 774 777 781 786 788 791 794 797 800 803 805 808 810 811 813 814 814 814 814 813 812 811 810 808 806 805 802 799 797 794 793 790 787 785 782
779 767 770 771 771 769 769 770 771 773 777 779 783 787 791 794 797 800 802 804 806 808 809 810 811 811 811 811 810 809 808 807 805 804 802 799 798 795 793 790 787 785 783 781
780 770 768 767 767 766 768 770 771 773 775 778 781 786 788 792 795 798 800 802 803 805 806 808 808 808 808 808 807 807 805 804 802 801 800 797 794 792 790 788 786 784 782 779
760 758 759 761 760 761 766 768 771 773 776 777 779 783 787 790 792 795 798 800 802 803 803 804 805 804 804 805 804 803 801 800 798 797 795 793 789 786 784 783 781 780 777 774
750 755 759 759 760 759 762 764 768 771 774 777 779 781 784 788 790 792 796 798 799 800 800 801 801 800 800 800 799 798 797 795 794 792 790 787 785 783 780 776 775 773 770 766
752 756 760 760 759 759 759 762 764 768 772 775 778 782 785 787 790 792 793 794 796 797 797 797 797 796 795 795 794 793 791 790 789 786 784 782 780 777 776 774 771 766 762 761
751 752 754 756 758 760 762 763 767 770 773 777 779 782 785 788 789 789 790 792 793 793 793 793 792 791 791 790 788 787 785 784 782 780 778 776 774 772 770 768 766 762 757 753
751 754 755 756 758 761 763 766 767 770 773 777 780 782 784 786 787 789 789 790 790 789 789 788 787 785 785 784 781 780 778 778 776 774 771 769 768 766 764 762 759 755 751 747
754 757 757 758 759 761 762 765 768 770 774 776 779 782 784 785 786 786 786 786 785 785 784 783 780 780 779 777 776 773 771 770 769 767 764 761 760 758 756 754 751 748 743 740
740 742 746 748 753 758 762 765 769 772 774 777 779 780 781 782 782 783 782 781 780 779 779 776 775 773 772 770 769 766 765 763 761 759 757 755 753 751 748 745 742 739 734 731
742 744 746 748 753 754 760 764 767 770 772 775 778 780 780 780 779 778 777 775 774 772 767 769 767 765 763 761 761 760 758 756 753 752 750 748 746 744 741 739 736 733 729 725
743 744 748 749 754 756 759 763 765 768 769 771 774 775 776 775 774 772 772 768 767 766 762 761 760 758 756 754 753 752 750 749 747 745 743 742 739 736 734 731 728 725 723 720
747 750 752 753 756 759 761 763 765 766 767 768 768 768 768 767 767 766 765 762 755 758 756 754 753 750 749 747 745 743 742 741 740 738 737 734 731 728 725 723 720 718 715 713
751 753 754 756 758 759 761 763 763 764 763 763 762 762 761 760 759 757 756 755 748 749 747 745 744 743 742 739 737 735 734 733 731 730 728 726 724 721 718 715 712 710 708 705
752 754 755 757 757 757 758 758 758 757 757 757 757 756 754 752 751 751 746 742 741 740 739 737 736 735 734 732 729 728 726 724 723 721 720 718 716 713 710 707 705 703 700 698
751 752 752 753 754 754 753 751 751 750 750 749 748 747 746 744 740 739 737 734 733 732 731 729 728 727 727 724 722 720 718 716 715 713 711 710 708 706 703 701 698 696 693 690
750 750 750 750 750 748 746 746 745 743 742 740 738 736 735 735 735 729 730 727 725 724 722 720 720 719 718 716 714 712 710 709 707 706 704 702 700 698 696 693 691 688 685 682
747 746 745 744 743 742 741 740 738 735 734 731 729 728 726 726 725 723 720 719 717 715 713 712 711 710 709 707 705 703 702 701 700 698 697 695 693 691 688 686 683 681 678 676
741 740 738 736 736 735 733 731 730 727 726 725 723 720 719 717 716 715 713 710 709 707 705 704 703 702 700 698 696 695 695 694 692 690 688 686 685 683 680 678 675 673 671 668